Location: Huberhof
(49.2050°N, 7.4980°E)
Time: 01:25:55
(UTC+00:00)

USA 307 - Pass Details

Date: 29 October 2020
Orbit: 569 x 579 km, 54.0° (Epoch: 23 November)

Event Time Altitude Azimuth Distance (km) Brightness Sun altitude
Rises 18:39:41 0° 295° (WNW) 2,788 7.6 -24.4°
Reaches altitude 10° 18:42:06 10° 286° (WNW) 1,885 6.6 -24.8°
Maximum altitude 18:45:57 33° 222° (SW) 971 4.3 -25.4°
Enters shadow 18:46:30 32° 205° (SSW) 998 4.2 -25.5°
